Regional Weather Roundup
Issued by NWS Jackson, KY

Home | Current Version | Previous Version | Graphics & Text | Print | Product List | Glossary On
Versions: 1 2 3 4 5 6 7 8 9 10 11 12 13 14 15 16 17 18 19 20 21 22 23 24 25 26 27
000
ASUS43 KJKL 252310
RWRJKL

EAST KENTUCKY HOURLY WEATHER ROUNDUP
NATIONAL WEATHER SERVICE JACKSON KY
700 PM EDT SAT MAR 25 2017

NOTE: "FAIR" INDICATES FEW OR NO CLOUDS BELOW 12,000 FEET WITH
NO SIGNIFICANT WEATHER AND/OR OBSTRUCTIONS TO VISIBILITY.

* THESE REPORTS ARE NOT UNDER NWS QUALITY CONTROL AND MAY NOT
  REPORT WEATHER SUCH AS PRECIPITATION AND FOG.

KYZ079-080-083-085-087-088-110-112-115-119-120-260000
...EASTERN KENTUCKY...

CITY           SKY/WX    TMP DP  RH WIND       PRES   REMARKS
JACKSON        CLOUDY    74  47  38 S6        30.06F
LONDON         CLOUDY    72  45  37 S9        30.06F
SOMERSET*      CLOUDY    70  46  43 S6        30.05S
MONTICELLO*    CLOUDY    72  51  47 SE10      30.04F
WILLIAMSBURG*  CLOUDY    70  48  46 SE8       30.06F
MIDDLESBORO*   CLOUDY    74  48  40 S7        30.07F
HARLAN APT*    CLEAR     72  41  33 CALM      30.08S
PIKE CO APT*     N/A     73  46  37 CALM      30.07S
BIG SANDY APT* MOCLDY    75  47  35 S5        30.06S
MOREHEAD APT*  CLOUDY    75  45  33 S7G14     30.06S
$$

KYZ035-036-041-042-044-050-067-078-099-260000
...CENTRAL KENTUCKY...

CITY           SKY/WX    TMP DP  RH WIND       PRES   REMARKS
MT STERLING*   MOCLDY    73  50  43 S7        30.05F
FLEMING/MASON* CLOUDY    70  52  53 E3        30.05F
DANVILLE*      CLOUDY    70  50  49 S6        30.04S
LEXINGTON      CLOUDY    73  49  42 S8        30.03S
FRANKFORT      PTSUNNY   75  48  38 S10       30.00F
LOUISVILLE     CLOUDY    75  47  36 S20       29.95F
LEBANON*         N/A     72  50  46 SE13      30.00F
GLASGOW*       LGT RAIN  66  55  68 S12       30.01R
BOWLING GREEN  PTSUNNY   67  60  78 SE8       29.97F
$$

KYZ091>093-OHZ055-061-077-WVZ005-015-034-035-042-260000
...SOUTHERN OHIO/WEST VIRGINIA...

CITY           SKY/WX    TMP DP  RH WIND       PRES   REMARKS
COVINGTON      CLOUDY    73  51  46 S15G23    30.00S
COLUMBUS       CLOUDY    74  50  42 S6        30.06F
DAYTON         CLOUDY    69  50  50 SE13      30.03S
WILMINGTON     PTCLDY    68  52  56 SE6       30.05S
HUNTINGTON     MOCLDY    73  47  39 CALM      30.05F
CHARLESTON     CLOUDY    73  48  41 NE6       30.06F
PINEVILLE*     CLOUDY    71  46  41 MISG      30.14S
BECKLEY        MOCLDY    68  45  43 SE9       30.14S
LOGAN CO APT*    N/A     75  45  33 CALM      30.08S
$$

VAZ002-007-008-TNZ017-027-036-066-071-260000
...SOUTHWEST VIRGINIA/EAST TENNESSEE...

CITY           SKY/WX    TMP DP  RH WIND       PRES   REMARKS
WISE*          CLEAR     68  41  37 CALM      30.14S
JONESVILLE*      N/A     73  46  38 CALM      30.10S
ABINGDON*      PTCLDY    72  47  40 S8        30.12S
BRISTOL        MOCLDY    73  48  41 S8        30.10S
MORRISTOWN*    CLEAR     73  46  38 S5        30.07S
SEVIERVILLE*   CLEAR     73  45  35 SW13      30.06S
KNOXVILLE      MOCLDY    74  46  36 S13       30.06S
LAFOLLETTE*    PTCLDY    72  48  43 S8        30.09F
OAK RIDGE      PTCLDY    74  47  38 S3        30.06F
CROSSVILLE     MOSUNNY   69  48  47 S7G16     30.06F
NASHVILLE      CLOUDY    65  56  72 S14G23    30.00R
$$

...KEY TO REMARKS...
VSB - VISIBILITY IN MILES
WCI - WIND CHILL INDEX
HX  - HEAT INDEX

$$




USA.gov is the U.S. government's official web portal to all federal, state and local government web resources and services.